PulseSat

PulseSat

1998-067HZ

Last updated on May 20, 2016, 9:36 a.m. UTC

1 41479U 98067HZ  16141.19305442  .00018433  00000-0  27206-3 0  9995
2 41479  51.6429 197.6700 0002105 222.9897 227.6390 15.55409289   446
UTC
Height (km)
Latitude
Longitude
Inclination
Orbital Period

Next 30 passes for location: Hong Kong

Rise time Rise Azimuth (degrees) Set time Set Azimuth (degrees) Duration Max altitude (degrees)

No matching passes for this satellites

PulseSat

PulseSat is the new satellites software and hardware trackering solution by Pulsely.
Satellite Two Line Element Set source: US Air Force Space Command

Download PulseSat for iOS
© 2017 Pulsely Limited